Regional Weather Roundup
Issued by NWS

Home | Current Version | Previous Version | Text Only | Print | Product List | Glossary On
Versions: 1 2 3 4 5 6 7 8 9 10 11 12 13 14 15 16 17 18 19 20 21 22 23 24 25 26 27 28 29 30 31 32 33 34 35 36 37 38 39 40 41 42 43 44 45 46 47 48 49 50
000
ASUS43 KDTX 180201
RWRMI
MICHIGAN HOURLY REGIONAL WEATHER ROUNDUP
NATIONAL WEATHER SERVICE DETROIT/PONTIAC MI
1000 PM EDT FRI APR 17 2015

NOTE: "FAIR" INDICATES FEW OR NO CLOUDS BELOW 12,000 FEET WITH NO
SIGNIFICANT WEATHER AND/OR OBSTRUCTION TO VISIBILITY.

MIZ047>049-052>055-059>063-066>070-074>076-081>083-180300-
SOUTHEAST LOWER MICHIGAN

CITY           SKY/WX    TMP DP  RH WIND       PRES   REMARKS
ADRIAN         CLEAR     65  43  44 NW5       30.03R
ALMA           CLEAR     62  41  46 W3        30.01S
ANN ARBOR      PTCLDY    61  42  49 W7        30.01R
BAD AXE        PTCLDY    55  42  63 CALM      30.00S
CARO           CLEAR     56  43  60 CALM      29.98S
DETROIT CITY   CLEAR     59  46  62 S3        30.02R
DETROIT        PTCLDY    60  43  53 E3        30.02R
FLINT          CLEAR     61  41  47 W5        30.00R
GROSSE ILE     PTCLDY    52  46  82 SE6       30.01R
HILLSDALE      CLEAR     62  40  43 CALM      30.04R
HOWELL         CLEAR     63  38  39 W5        30.02R

CITY           SKY/WX    TMP DP  RH WIND       PRES   REMARKS
JACKSON        CLEAR     63  39  41 W3        30.03R
LAMBERTVILLE   PTCLDY    61  45  55 CALM      30.02R
LANSING        CLEAR     64  39  39 W5        30.03R
LAPEER         FAIR      59  46  62 S3        30.00S
MASON          CLEAR     63  39  42 CALM      30.03R
MONROE         PTCLDY    61  46  59 CALM      30.00R
PONTIAC        PTCLDY    62  43  49 S6        30.01R
PORT HOPE        N/A     44  39  82 SE9       29.99R
PORT HURON     CLEAR     52  43  71 S3        30.02S
TRI CITIES     CLEAR     61  42  49 W9        29.99R
TROY           CLEAR     64  38  37 S3        30.03R
SAGINAW HB     PTCLDY    63  39  42 SW8       29.99R
$$
MIZ043>046-050>051-056>058-064>065-071>073-077>080-180300-
SOUTHWEST LOWER MICHIGAN

CITY           SKY/WX    TMP DP  RH WIND       PRES   REMARKS
BATTLE CREEK   CLEAR     65  39  38 CALM      30.04R
BENTON HARBOR  CLEAR     60  46  59 CALM      30.01S
BIG RAPIDS     CLEAR     56  39  51 CALM      30.01R
COLDWATER      CLEAR     60  40  48 CALM      30.03S
FREMONT        FAIR      57  35  42 SW5       30.01R
HOLLAND        CLEAR     57  44  62 CALM      30.02F
GRAND RAPIDS   CLEAR     63  40  42 W6        30.02R
IONIA          FAIR      59  41  50 W6        30.02R
KALAMAZOO      CLEAR     63  42  46 CALM      30.03S
LUDINGTON      CLEAR     51  40  66 CALM      30.01S
MARSHALL       CLEAR     57  39  50 CALM      30.03R
MOUNT PLEASANT CLEAR     62  40  43 W3        30.00R
MUSKEGON       PTCLDY    52  40  63 CALM      30.02S
SOUTH HAVEN    CLEAR     57  45  63 CALM      30.02S
$$
MIZ016>042-180300-
NORTHERN LOWER MICHIGAN

CITY           SKY/WX    TMP DP  RH WIND       PRES   REMARKS
ALPENA         CLEAR     44  37  76 CALM      30.01S
BEAVER ISLAND  CLEAR     44  33  64 CALM      29.98F
BELLAIRE       CLEAR     47  41  78 CALM      29.99S
CADILLAC       CLEAR     51  37  59 CALM      30.00S
CHARLEVOIX     FAIR      49  34  56 CALM      30.01F
FRANKFORT      CLEAR     50  40  70 CALM      29.98S
GAYLORD        CLEAR     53  37  54 CALM      29.99F
GRAYLING       CLEAR     47  37  67 CALM      30.01S
HARBOR SPRINGS CLEAR     42  35  75 CALM      29.99S
HOUGHTON LAKE  CLEAR     50  39  66 CALM      30.01R
MANISTEE       CLEAR     48  39  71 CALM      30.00S
OSCODA         CLEAR     42  37  82 N3        30.01R
PELLSTON       CLEAR     44  29  55 CALM      29.99S
ROGERS CITY    CLEAR     50  31  49 S3        30.00S
TRAVERSE CITY  PTCLDY    47  35  63 CALM      29.97F
$$
MIZ007>008-015-180300-
EASTERN UPPER MICHIGAN

CITY           SKY/WX    TMP DP  RH WIND       PRES   REMARKS
KINROSS        CLEAR     45  28  53 CALM      29.98S
MACKINAC ISLAN CLEAR     46  29  53 W6        29.99R
NEWBERRY       CLEAR     44  34  69 SW6       29.98S
S. S. MARIE    CLEAR     42  28  57 CALM      29.98R
MUNISING         N/A     44  29  55 S7        29.97S
$$
MIZ004>006-011>014-085-180300-
CENTRAL UPPER MICHIGAN

CITY           SKY/WX    TMP DP  RH WIND       PRES   REMARKS
MANISTIQUE     CLEAR     41  34  78 CALM      29.98R
ESCANABA       CLEAR     43  32  65 CALM      29.97F
MENOMINEE      MOCLDY    50  37  62 SE5       29.97R
SAWYER-GWINN   CLEAR     52  30  43 CALM      29.98R
$$
MIZ001>003-009>011-084-180300-
WESTERN UPPER MICHIGAN

CITY           SKY/WX    TMP DP  RH WIND       PRES   REMARKS
IRON MOUNTAIN  CLEAR     55  39  54 CALM      29.96R
HOUGHTON       CLEAR     48  31  51 CALM      29.93F
COPPER HARBOR    N/A     47  28  47 SW14      29.90F
IRONWOOD       CLEAR     52  36  54 CALM      29.96R
$$

ABBREVIATIONS USED IN REMARKS
   TC - TEMPERATURE IN CELSIUS
  WCI - WIND CHILL INDEX
   HX - HEAT INDEX
  VSB - VISIBILITY



USA.gov is the U.S. government's official web portal to all federal, state and local government web resources and services.